Location: Newark
(41.0400°S, 62.7845°W)
Time: 03:34:11
(UTC+00:00)

Vanguard 2 Rocket - Pass Details

Date: 05 December 2021
Orbit: 554 x 3325 km, 32.9° (Epoch: 21 January)

Event Time Altitude Azimuth Distance (km) Brightness Sun altitude
Rises 11:33:26 0° 277° (W) 7,022 10.9 31.5°
Reaches altitude 10° 11:38:41 10° 280° (W) 5,724 10.5 32.4°
Maximum altitude 11:54:17 58° 352° (N) 2,243 9.3 35.4°
Drops below altitude 10° 12:03:13 10° 69° (ENE) 3,421 11.0 37.1°
Sets 12:05:34 0° 73° (ENE) 4,114 11.1 37.5°
